TimePDT,TemperatureF,Dew PointF,Humidity,Sea Level PressureIn,VisibilityMPH,Wind Direction,Wind SpeedMPH,Gust SpeedMPH,PrecipitationIn,Events,Conditions,WindDirDegrees,DateUTC
12:54 AM,57.0,54.0,89,29.77,9.0,SSW,10.4,-,N/A,,Scattered Clouds,210,2013-07-21 07:54:00
1:54 AM,55.9,52.0,87,29.76,10.0,SW,9.2,-,N/A,,Clear,220,2013-07-21 08:54:00
2:47 AM,53.6,51.8,94,29.78,9.0,West,4.6,-,N/A,,Clear,260,2013-07-21 09:47:00
2:54 AM,54.0,51.1,90,29.76,9.0,West,3.5,-,N/A,,Clear,260,2013-07-21 09:54:00
3:01 AM,53.6,51.8,94,29.78,9.0,WSW,3.5,-,N/A,,Scattered Clouds,240,2013-07-21 10:01:00
3:13 AM,55.4,51.8,88,29.78,9.0,WSW,3.5,-,N/A,,Mostly Cloudy,250,2013-07-21 10:13:00
3:54 AM,55.9,53.1,90,29.75,8.0,SSW,6.9,-,N/A,,Overcast,210,2013-07-21 10:54:00
4:54 AM,55.9,53.1,90,29.76,9.0,SW,3.5,-,N/A,,Overcast,220,2013-07-21 11:54:00
5:54 AM,55.9,52.0,87,29.77,10.0,SSW,9.2,-,N/A,,Overcast,200,2013-07-21 12:54:00
6:54 AM,55.9,52.0,87,29.78,10.0,SSW,8.1,-,N/A,,Overcast,210,2013-07-21 13:54:00
7:54 AM,57.0,52.0,83,29.79,10.0,South,6.9,-,N/A,,Overcast,190,2013-07-21 14:54:00
8:54 AM,57.9,52.0,81,29.81,10.0,WSW,4.6,-,N/A,,Overcast,250,2013-07-21 15:54:00
9:54 AM,61.0,53.1,75,29.81,10.0,SW,8.1,-,N/A,,Mostly Cloudy,220,2013-07-21 16:54:00
10:45 AM,64.4,53.6,68,29.84,10.0,SSW,11.5,-,N/A,,Scattered Clouds,200,2013-07-21 17:45:00
10:54 AM,63.0,53.1,70,29.81,10.0,SSW,10.4,-,N/A,,Partly Cloudy,210,2013-07-21 17:54:00
11:54 AM,66.9,53.1,61,29.81,10.0,SSW,11.5,-,N/A,,Clear,200,2013-07-21 18:54:00
12:54 PM,70.0,53.1,55,29.80,10.0,SSW,11.5,-,N/A,,Clear,200,2013-07-21 19:54:00
1:54 PM,72.0,54.0,53,29.78,10.0,South,12.7,-,N/A,,Clear,190,2013-07-21 20:54:00
2:54 PM,73.9,55.0,52,29.78,10.0,SSW,12.7,-,N/A,,Clear,200,2013-07-21 21:54:00
3:54 PM,75.0,55.9,51,29.76,10.0,SSW,11.5,-,N/A,,Clear,200,2013-07-21 22:54:00
4:54 PM,73.0,54.0,51,29.75,10.0,SSW,16.1,-,N/A,,Clear,210,2013-07-21 23:54:00
5:54 PM,70.0,54.0,57,29.74,10.0,South,16.1,-,N/A,,Clear,190,2013-07-22 00:54:00
6:54 PM,66.9,54.0,63,29.76,10.0,SSW,17.3,-,N/A,,Clear,200,2013-07-22 01:54:00
7:54 PM,63.0,54.0,72,29.78,10.0,South,15.0,-,N/A,,Clear,190,2013-07-22 02:54:00
8:54 PM,62.1,55.0,78,29.80,10.0,South,15.0,-,N/A,,Clear,180,2013-07-22 03:54:00
9:54 PM,62.1,57.0,84,29.83,10.0,South,8.1,-,N/A,,Clear,190,2013-07-22 04:54:00
10:54 PM,60.1,51.1,72,29.84,10.0,West,4.6,-,N/A,,Clear,260,2013-07-22 05:54:00
11:54 PM,57.9,52.0,81,29.86,10.0,SSW,5.8,-,N/A,,Clear,200,2013-07-22 06:54:00